Year,Month,Day,Hour,Minute,Value (Times are PST for temperature in C)
2012,05,25,00,00,9.40
2012,05,25,00,01,9.30
2012,05,25,00,02,9.30
2012,05,25,00,03,9.30
2012,05,25,00,04,9.20
2012,05,25,00,05,9.20
2012,05,25,00,06,9.20
2012,05,25,00,07,9.10
2012,05,25,00,08,9.00
2012,05,25,00,09,9.00
2012,05,25,00,10,8.90
2012,05,25,00,11,8.90
2012,05,25,00,12,8.80
2012,05,25,00,13,8.80
2012,05,25,00,14,8.80
2012,05,25,00,15,8.70
2012,05,25,00,16,8.70
2012,05,25,00,17,8.60
2012,05,25,00,18,8.60
2012,05,25,00,19,8.60
2012,05,25,00,20,8.60
2012,05,25,00,21,8.50
2012,05,25,00,22,8.50
2012,05,25,00,23,8.50
2012,05,25,00,24,8.50
2012,05,25,00,25,8.40
2012,05,25,00,26,8.40
2012,05,25,00,27,8.40
2012,05,25,00,28,8.40
2012,05,25,00,29,8.40
2012,05,25,00,30,8.40
2012,05,25,00,31,8.40
2012,05,25,00,32,8.40
2012,05,25,00,33,8.40
2012,05,25,00,34,8.40
2012,05,25,00,35,8.40
2012,05,25,00,36,8.40
2012,05,25,00,37,8.40
2012,05,25,00,38,8.40
2012,05,25,00,39,8.40
2012,05,25,00,40,8.40
2012,05,25,00,41,8.40
2012,05,25,00,42,8.40
2012,05,25,00,43,8.40
2012,05,25,00,44,8.30
2012,05,25,00,45,8.30
2012,05,25,00,46,8.30
2012,05,25,00,47,8.30
2012,05,25,00,48,8.30
2012,05,25,00,49,8.30
2012,05,25,00,50,8.30
2012,05,25,00,51,8.30
2012,05,25,00,52,8.30
2012,05,25,00,53,8.30
2012,05,25,00,54,8.30
2012,05,25,00,55,8.40
2012,05,25,00,56,8.40
2012,05,25,00,57,8.40
2012,05,25,00,58,8.40
2012,05,25,00,59,8.40
2012,05,25,01,00,8.40
2012,05,25,01,01,8.40
2012,05,25,01,02,8.40
2012,05,25,01,03,8.40
2012,05,25,01,04,8.40
2012,05,25,01,05,8.40
2012,05,25,01,06,8.40
2012,05,25,01,07,8.40
2012,05,25,01,08,8.40
2012,05,25,01,09,8.40
2012,05,25,01,10,8.40
2012,05,25,01,11,8.40
2012,05,25,01,12,8.40
2012,05,25,01,13,8.40
2012,05,25,01,14,8.40
2012,05,25,01,15,8.40
2012,05,25,01,16,8.40
2012,05,25,01,17,8.40
2012,05,25,01,18,8.40
2012,05,25,01,19,8.40
2012,05,25,01,20,8.40
2012,05,25,01,21,8.40
2012,05,25,01,22,8.40
2012,05,25,01,23,8.40
2012,05,25,01,24,8.30
2012,05,25,01,25,8.30
2012,05,25,01,26,8.30
2012,05,25,01,27,8.20
2012,05,25,01,28,8.20
2012,05,25,01,29,8.20
2012,05,25,01,30,8.10
2012,05,25,01,31,8.10
2012,05,25,01,32,8.10
2012,05,25,01,33,8.00
2012,05,25,01,34,8.00
2012,05,25,01,35,8.00
2012,05,25,01,36,7.90
2012,05,25,01,37,7.90
2012,05,25,01,38,7.90
2012,05,25,01,39,7.90
2012,05,25,01,40,7.80
2012,05,25,01,41,7.80
2012,05,25,01,42,7.80
2012,05,25,01,43,7.80
2012,05,25,01,44,7.80
2012,05,25,01,45,7.70
2012,05,25,01,46,7.70
2012,05,25,01,47,7.70
2012,05,25,01,48,7.70
2012,05,25,01,49,7.70
2012,05,25,01,50,7.60
2012,05,25,01,51,7.60
2012,05,25,01,52,7.60
2012,05,25,01,53,7.50
2012,05,25,01,54,7.50
2012,05,25,01,55,7.50
2012,05,25,01,56,7.50
2012,05,25,01,57,7.50
2012,05,25,01,58,7.50
2012,05,25,01,59,7.50
2012,05,25,02,00,7.50
2012,05,25,02,01,7.50
2012,05,25,02,02,7.50
2012,05,25,02,03,7.50
2012,05,25,02,04,7.50
2012,05,25,02,05,7.50
2012,05,25,02,06,7.50
2012,05,25,02,07,7.50
2012,05,25,02,08,7.50
2012,05,25,02,09,7.50
2012,05,25,02,10,7.50
2012,05,25,02,11,7.50
2012,05,25,02,12,7.50
2012,05,25,02,13,7.50
2012,05,25,02,14,7.50
2012,05,25,02,15,7.50
2012,05,25,02,16,7.50
2012,05,25,02,17,7.50
2012,05,25,02,18,7.50
2012,05,25,02,19,7.50
2012,05,25,02,20,7.50
2012,05,25,02,21,7.50
2012,05,25,02,22,7.50
2012,05,25,02,23,7.50
2012,05,25,02,24,7.50
2012,05,25,02,25,7.50
2012,05,25,02,26,7.50
2012,05,25,02,27,7.50
2012,05,25,02,28,7.50
2012,05,25,02,29,7.50
2012,05,25,02,30,7.50
2012,05,25,02,31,7.50
2012,05,25,02,32,7.50
2012,05,25,02,33,7.50
2012,05,25,02,34,7.60
2012,05,25,02,35,7.60
2012,05,25,02,36,7.60
2012,05,25,02,37,7.50
2012,05,25,02,38,7.50
2012,05,25,02,39,7.50
2012,05,25,02,40,7.50
2012,05,25,02,41,7.50
2012,05,25,02,42,7.50
2012,05,25,02,43,7.40
2012,05,25,02,44,7.40
2012,05,25,02,45,7.40
2012,05,25,02,46,7.40
2012,05,25,02,47,7.40
2012,05,25,02,48,7.40
2012,05,25,02,49,7.40
2012,05,25,02,50,7.40
2012,05,25,02,51,7.40
2012,05,25,02,52,7.40
2012,05,25,02,53,7.40
2012,05,25,02,54,7.40
2012,05,25,02,55,7.40
2012,05,25,02,56,7.40
2012,05,25,02,57,7.30
2012,05,25,02,58,7.30
2012,05,25,02,59,7.30
2012,05,25,03,00,7.30
2012,05,25,03,01,7.20
2012,05,25,03,02,7.20
2012,05,25,03,03,7.20
2012,05,25,03,04,7.20
2012,05,25,03,05,7.20
2012,05,25,03,06,7.20
2012,05,25,03,07,7.20
2012,05,25,03,08,7.20
2012,05,25,03,09,7.20
2012,05,25,03,10,7.20
2012,05,25,03,11,7.20
2012,05,25,03,12,7.20
2012,05,25,03,13,7.20
2012,05,25,03,14,7.20
2012,05,25,03,15,7.20
2012,05,25,03,16,7.20
2012,05,25,03,17,7.20
2012,05,25,03,18,7.20
2012,05,25,03,19,7.30
2012,05,25,03,20,7.30
2012,05,25,03,21,7.40
2012,05,25,03,22,7.40
2012,05,25,03,23,7.50
2012,05,25,03,24,7.60
2012,05,25,03,25,7.70
2012,05,25,03,26,7.80
2012,05,25,03,27,7.90
2012,05,25,03,28,8.00
2012,05,25,03,29,8.10
2012,05,25,03,30,8.10
2012,05,25,03,31,8.20
2012,05,25,03,32,8.30
2012,05,25,03,33,8.30
2012,05,25,03,34,8.30
2012,05,25,03,35,8.30
2012,05,25,03,36,8.30
2012,05,25,03,37,8.30
2012,05,25,03,38,8.20
2012,05,25,03,39,8.20
2012,05,25,03,40,8.10
2012,05,25,03,41,8.00
2012,05,25,03,42,8.00
2012,05,25,03,43,7.90
2012,05,25,03,44,7.80
2012,05,25,03,45,7.70
2012,05,25,03,46,7.60
2012,05,25,03,47,7.60
2012,05,25,03,48,7.50
2012,05,25,03,49,7.40
2012,05,25,03,50,7.40
2012,05,25,03,51,7.40
2012,05,25,03,52,7.40
2012,05,25,03,53,7.30
2012,05,25,03,54,7.20
2012,05,25,03,55,7.20
2012,05,25,03,56,7.20
2012,05,25,03,57,7.20
2012,05,25,03,58,7.20
2012,05,25,03,59,7.20
2012,05,25,04,00,7.10
2012,05,25,04,01,7.10
2012,05,25,04,02,7.00
2012,05,25,04,03,7.00
2012,05,25,04,04,7.00
2012,05,25,04,05,6.90
2012,05,25,04,06,6.90
2012,05,25,04,07,6.90
2012,05,25,04,08,6.90
2012,05,25,04,09,6.90
2012,05,25,04,10,6.90
2012,05,25,04,11,6.90
2012,05,25,04,12,6.90
2012,05,25,04,13,6.90
2012,05,25,04,14,6.90
2012,05,25,04,15,6.90
2012,05,25,04,16,6.90
2012,05,25,04,17,6.90
2012,05,25,04,18,6.90
2012,05,25,04,19,7.00
2012,05,25,04,20,7.00
2012,05,25,04,21,7.00
2012,05,25,04,22,7.00
2012,05,25,04,23,7.00
2012,05,25,04,24,7.00
2012,05,25,04,25,7.10
2012,05,25,04,26,7.10
2012,05,25,04,27,7.10
2012,05,25,04,28,7.10
2012,05,25,04,29,7.20
2012,05,25,04,30,7.20
2012,05,25,04,31,7.20
2012,05,25,04,32,7.20
2012,05,25,04,33,7.10
2012,05,25,04,34,7.10
2012,05,25,04,35,7.10
2012,05,25,04,36,7.10
2012,05,25,04,37,7.10
2012,05,25,04,38,7.10
2012,05,25,04,39,7.10
2012,05,25,04,40,7.10
2012,05,25,04,41,7.00
2012,05,25,04,42,7.00
2012,05,25,04,43,7.00
2012,05,25,04,44,6.90
2012,05,25,04,45,6.90
2012,05,25,04,46,6.90
2012,05,25,04,47,6.90
2012,05,25,04,48,6.90
2012,05,25,04,49,7.00
2012,05,25,04,50,7.00
2012,05,25,04,51,7.10
2012,05,25,04,52,7.10
2012,05,25,04,53,7.10
2012,05,25,04,54,7.10
2012,05,25,04,55,7.20
2012,05,25,04,56,7.20
2012,05,25,04,57,7.10
2012,05,25,04,58,7.10
2012,05,25,04,59,7.10
2012,05,25,05,00,7.10
2012,05,25,05,01,7.00
2012,05,25,05,02,7.00
2012,05,25,05,03,7.00
2012,05,25,05,04,6.90
2012,05,25,05,05,6.90
2012,05,25,05,06,6.90
2012,05,25,05,07,6.90
2012,05,25,05,08,6.90
2012,05,25,05,09,6.90
2012,05,25,05,10,6.90
2012,05,25,05,11,6.90
2012,05,25,05,12,6.90
2012,05,25,05,13,6.90
2012,05,25,05,14,7.00
2012,05,25,05,15,7.00
2012,05,25,05,16,7.00
2012,05,25,05,17,7.00
2012,05,25,05,18,7.00
2012,05,25,05,19,7.10
2012,05,25,05,20,7.10
2012,05,25,05,21,7.10
2012,05,25,05,22,7.10
2012,05,25,05,23,7.10
2012,05,25,05,24,7.10
2012,05,25,05,25,7.10
2012,05,25,05,26,7.10
2012,05,25,05,27,7.10
2012,05,25,05,28,7.20
2012,05,25,05,29,7.20
2012,05,25,05,30,7.20
2012,05,25,05,31,7.20
2012,05,25,05,32,7.20
2012,05,25,05,33,7.20
2012,05,25,05,34,7.20
2012,05,25,05,35,7.10
2012,05,25,05,36,7.10
2012,05,25,05,37,7.10
2012,05,25,05,38,7.10
2012,05,25,05,39,7.10
2012,05,25,05,40,7.10
2012,05,25,05,41,7.10
2012,05,25,05,42,7.10
2012,05,25,05,43,7.10
2012,05,25,05,44,7.10
2012,05,25,05,45,7.10
2012,05,25,05,46,7.10
2012,05,25,05,47,7.10
2012,05,25,05,48,7.10
2012,05,25,05,49,7.20
2012,05,25,05,50,7.20
2012,05,25,05,51,7.20
2012,05,25,05,52,7.20
2012,05,25,05,53,7.20
2012,05,25,05,54,7.20
2012,05,25,05,55,7.20
2012,05,25,05,56,7.20
2012,05,25,05,57,7.30
2012,05,25,05,58,7.30
2012,05,25,05,59,7.30
2012,05,25,06,00,7.30
2012,05,25,06,01,7.40
2012,05,25,06,02,7.40
2012,05,25,06,03,7.40
2012,05,25,06,04,7.40
2012,05,25,06,05,7.40
2012,05,25,06,06,7.50
2012,05,25,06,07,7.50
2012,05,25,06,08,7.50
2012,05,25,06,09,7.60
2012,05,25,06,10,7.60
2012,05,25,06,11,7.60
2012,05,25,06,12,7.70
2012,05,25,06,13,7.70
2012,05,25,06,14,7.70
2012,05,25,06,15,7.80
2012,05,25,06,16,7.80
2012,05,25,06,17,7.80
2012,05,25,06,18,7.80
2012,05,25,06,19,7.90
2012,05,25,06,20,7.90
2012,05,25,06,21,7.90
2012,05,25,06,22,8.00
2012,05,25,06,23,8.00
2012,05,25,06,24,8.00
2012,05,25,06,25,8.10
2012,05,25,06,26,8.10
2012,05,25,06,27,8.10
2012,05,25,06,28,8.20
2012,05,25,06,29,8.20
2012,05,25,06,30,8.20
2012,05,25,06,31,8.20
2012,05,25,06,32,8.30
2012,05,25,06,33,8.30
2012,05,25,06,34,8.30
2012,05,25,06,35,8.30
2012,05,25,06,36,8.40
2012,05,25,06,37,8.40
2012,05,25,06,38,8.40
2012,05,25,06,39,8.50
2012,05,25,06,40,8.50
2012,05,25,06,41,8.50
2012,05,25,06,42,8.60
2012,05,25,06,43,8.60
2012,05,25,06,44,8.70
2012,05,25,06,45,8.70
2012,05,25,06,46,8.70
2012,05,25,06,47,8.80
2012,05,25,06,48,8.80
2012,05,25,06,49,8.80
2012,05,25,06,50,8.90
2012,05,25,06,51,8.90
2012,05,25,06,52,9.00
2012,05,25,06,53,9.00
2012,05,25,06,54,9.10
2012,05,25,06,55,9.20
2012,05,25,06,56,9.20
2012,05,25,06,57,9.30
2012,05,25,06,58,9.30
2012,05,25,06,59,9.40
2012,05,25,07,00,9.40
2012,05,25,07,01,9.50
2012,05,25,07,02,9.60
2012,05,25,07,03,9.70
2012,05,25,07,04,9.80
2012,05,25,07,05,9.80
2012,05,25,07,06,9.90
2012,05,25,07,07,10.00
2012,05,25,07,08,10.10
2012,05,25,07,09,10.20
2012,05,25,07,10,10.30
2012,05,25,07,11,10.30
2012,05,25,07,12,10.40
2012,05,25,07,13,10.50
2012,05,25,07,14,10.50
2012,05,25,07,15,10.60
2012,05,25,07,16,10.70
2012,05,25,07,17,10.80
2012,05,25,07,18,11.00
2012,05,25,07,19,11.10
2012,05,25,07,20,11.20
2012,05,25,07,21,11.30
2012,05,25,07,22,11.30
2012,05,25,07,23,11.40
2012,05,25,07,24,11.50
2012,05,25,07,25,11.50
2012,05,25,07,26,11.60
2012,05,25,07,27,11.70
2012,05,25,07,28,11.70
2012,05,25,07,29,11.80
2012,05,25,07,30,11.80
2012,05,25,07,31,11.90
2012,05,25,07,32,11.90
2012,05,25,07,33,12.00
2012,05,25,07,34,12.00
2012,05,25,07,35,12.10
2012,05,25,07,36,12.10
2012,05,25,07,37,12.20
2012,05,25,07,38,12.20
2012,05,25,07,39,12.30
2012,05,25,07,40,12.30
2012,05,25,07,41,12.40
2012,05,25,07,42,12.40
2012,05,25,07,43,12.50
2012,05,25,07,44,12.50
2012,05,25,07,45,12.60
2012,05,25,07,46,12.70
2012,05,25,07,47,12.70
2012,05,25,07,48,12.80
2012,05,25,07,49,13.00
2012,05,25,07,50,13.10
2012,05,25,07,51,13.20
2012,05,25,07,52,13.20
2012,05,25,07,53,13.30
2012,05,25,07,54,13.30
2012,05,25,07,55,13.40
2012,05,25,07,56,13.50
2012,05,25,07,57,13.50
2012,05,25,07,58,13.60
2012,05,25,07,59,13.70
2012,05,25,08,00,13.70
2012,05,25,08,01,13.80
2012,05,25,08,02,13.80
2012,05,25,08,03,13.80
2012,05,25,08,04,13.90
2012,05,25,08,05,13.90
2012,05,25,08,06,14.00
2012,05,25,08,07,14.10
2012,05,25,08,08,14.20
2012,05,25,08,09,14.30
2012,05,25,08,10,14.30
2012,05,25,08,11,14.30
2012,05,25,08,12,14.30
2012,05,25,08,13,14.30
2012,05,25,08,14,14.30
2012,05,25,08,15,14.30
2012,05,25,08,16,14.30
2012,05,25,08,17,14.30
2012,05,25,08,18,14.40
2012,05,25,08,19,14.40
2012,05,25,08,20,14.40
2012,05,25,08,21,14.40
2012,05,25,08,22,14.40
2012,05,25,08,23,14.50
2012,05,25,08,24,14.60
2012,05,25,08,25,14.60
2012,05,25,08,26,14.70
2012,05,25,08,27,14.70
2012,05,25,08,28,14.80
2012,05,25,08,29,14.80
2012,05,25,08,30,14.80
2012,05,25,08,31,14.70
2012,05,25,08,32,14.70
2012,05,25,08,33,14.70
2012,05,25,08,34,14.70
2012,05,25,08,35,14.70
2012,05,25,08,36,14.70
2012,05,25,08,37,14.80
2012,05,25,08,38,14.80
2012,05,25,08,39,14.80
2012,05,25,08,40,14.90
2012,05,25,08,41,14.90
2012,05,25,08,42,14.90
2012,05,25,08,43,14.90
2012,05,25,08,44,14.90
2012,05,25,08,45,14.90
2012,05,25,08,46,15.00
2012,05,25,08,47,15.10
2012,05,25,08,48,15.10
2012,05,25,08,49,15.10
2012,05,25,08,50,15.20
2012,05,25,08,51,15.20
2012,05,25,08,52,15.20
2012,05,25,08,53,15.20
2012,05,25,08,54,15.20
2012,05,25,08,55,15.20
2012,05,25,08,56,15.20
2012,05,25,08,57,15.20
2012,05,25,08,58,15.30
2012,05,25,08,59,15.30
2012,05,25,09,00,15.40
2012,05,25,09,01,15.40
2012,05,25,09,02,15.40
2012,05,25,09,03,15.40
2012,05,25,09,04,15.50
2012,05,25,09,05,15.50
2012,05,25,09,06,15.50
2012,05,25,09,07,15.50
2012,05,25,09,08,15.60
2012,05,25,09,09,15.60
2012,05,25,09,10,15.70
2012,05,25,09,11,15.70
2012,05,25,09,12,15.80
2012,05,25,09,13,16.00
2012,05,25,09,14,16.00
2012,05,25,09,15,16.10
2012,05,25,09,16,16.10
2012,05,25,09,17,16.00
2012,05,25,09,18,15.90
2012,05,25,09,19,15.90
2012,05,25,09,20,15.90
2012,05,25,09,21,16.00
2012,05,25,09,22,16.10
2012,05,25,09,23,16.20
2012,05,25,09,24,16.30
2012,05,25,09,25,16.40
2012,05,25,09,26,16.50
2012,05,25,09,27,16.60
2012,05,25,09,28,16.70
2012,05,25,09,29,16.80
2012,05,25,09,30,16.90
2012,05,25,09,31,16.90
2012,05,25,09,32,16.90
2012,05,25,09,33,16.80
2012,05,25,09,34,16.70
2012,05,25,09,35,16.50
2012,05,25,09,36,16.40
2012,05,25,09,37,16.40
2012,05,25,09,38,16.40
2012,05,25,09,39,16.40
2012,05,25,09,40,16.50
2012,05,25,09,41,16.50
2012,05,25,09,42,16.50
2012,05,25,09,43,16.60
2012,05,25,09,44,16.60
2012,05,25,09,45,16.60
2012,05,25,09,46,16.60
2012,05,25,09,47,16.60
2012,05,25,09,48,16.60
2012,05,25,09,49,16.60
2012,05,25,09,50,16.70
2012,05,25,09,51,16.70
2012,05,25,09,52,16.80
2012,05,25,09,53,16.80
2012,05,25,09,54,16.80
2012,05,25,09,55,16.80
2012,05,25,09,56,16.70
2012,05,25,09,57,16.70
2012,05,25,09,58,16.70
2012,05,25,09,59,16.70
2012,05,25,10,00,16.80
2012,05,25,10,01,16.90
2012,05,25,10,02,17.00
2012,05,25,10,03,17.10
2012,05,25,10,04,17.10
2012,05,25,10,05,17.20
2012,05,25,10,06,17.10
2012,05,25,10,07,16.90
2012,05,25,10,08,16.80
2012,05,25,10,09,16.80
2012,05,25,10,10,16.80
2012,05,25,10,11,16.80
2012,05,25,10,12,16.80
2012,05,25,10,13,16.80
2012,05,25,10,14,16.80
2012,05,25,10,15,16.90
2012,05,25,10,16,17.00
2012,05,25,10,17,17.00
2012,05,25,10,18,17.00
2012,05,25,10,19,17.10
2012,05,25,10,20,17.10
2012,05,25,10,21,17.10
2012,05,25,10,22,17.20
2012,05,25,10,23,17.20
2012,05,25,10,24,17.20
2012,05,25,10,25,17.20
2012,05,25,10,26,17.20
2012,05,25,10,27,17.20
2012,05,25,10,28,17.20
2012,05,25,10,29,17.20
2012,05,25,10,30,17.20
2012,05,25,10,31,17.20
2012,05,25,10,32,17.20
2012,05,25,10,33,17.20
2012,05,25,10,34,17.20
2012,05,25,10,35,17.20
2012,05,25,10,36,17.20
2012,05,25,10,37,17.10
2012,05,25,10,38,17.10
2012,05,25,10,39,17.00
2012,05,25,10,40,17.00
2012,05,25,10,41,16.90
2012,05,25,10,42,16.90
2012,05,25,10,43,16.90
2012,05,25,10,44,16.90
2012,05,25,10,45,16.90
2012,05,25,10,46,17.00
2012,05,25,10,47,17.10
2012,05,25,10,48,17.20
2012,05,25,10,49,17.20
2012,05,25,10,50,17.20
2012,05,25,10,51,17.20
2012,05,25,10,52,17.20
2012,05,25,10,53,17.20
2012,05,25,10,54,17.20
2012,05,25,10,55,17.20
2012,05,25,10,56,17.20
2012,05,25,10,57,17.30
2012,05,25,10,58,17.40
2012,05,25,10,59,17.40
2012,05,25,11,00,17.50
2012,05,25,11,01,17.60
2012,05,25,11,02,17.50
2012,05,25,11,03,17.40
2012,05,25,11,04,17.20
2012,05,25,11,05,17.10
2012,05,25,11,06,17.00
2012,05,25,11,07,16.90
2012,05,25,11,08,16.90
2012,05,25,11,09,16.90
2012,05,25,11,10,17.00
2012,05,25,11,11,17.10
2012,05,25,11,12,17.20
2012,05,25,11,13,17.30
2012,05,25,11,14,17.40
2012,05,25,11,15,17.40
2012,05,25,11,16,17.30
2012,05,25,11,17,17.20
2012,05,25,11,18,17.20
2012,05,25,11,19,17.20
2012,05,25,11,20,17.30
2012,05,25,11,21,17.40
2012,05,25,11,22,17.50
2012,05,25,11,23,17.60
2012,05,25,11,24,17.80
2012,05,25,11,25,17.80
2012,05,25,11,26,17.90
2012,05,25,11,27,17.90
2012,05,25,11,28,17.90
2012,05,25,11,29,17.80
2012,05,25,11,30,17.70
2012,05,25,11,31,17.60
2012,05,25,11,32,17.50
2012,05,25,11,33,17.40
2012,05,25,11,34,17.40
2012,05,25,11,35,17.50
2012,05,25,11,36,17.60
2012,05,25,11,37,17.70
2012,05,25,11,38,17.80
2012,05,25,11,39,17.90
2012,05,25,11,40,18.10
2012,05,25,11,41,18.20
2012,05,25,11,42,18.20
2012,05,25,11,43,18.30
2012,05,25,11,44,18.40
2012,05,25,11,45,18.50
2012,05,25,11,46,18.50
2012,05,25,11,47,18.50
2012,05,25,11,48,18.60
2012,05,25,11,49,18.60
2012,05,25,11,50,18.60
2012,05,25,11,51,18.50
2012,05,25,11,52,18.50
2012,05,25,11,53,18.40
2012,05,25,11,54,18.40
2012,05,25,11,55,18.30
2012,05,25,11,56,18.30
2012,05,25,11,57,18.40
2012,05,25,11,58,18.50
2012,05,25,11,59,18.50
2012,05,25,12,00,18.50
2012,05,25,12,01,18.60
2012,05,25,12,02,18.60
2012,05,25,12,03,18.70
2012,05,25,12,04,18.80
2012,05,25,12,05,19.00
2012,05,25,12,06,19.10
2012,05,25,12,07,19.20
2012,05,25,12,08,19.20
2012,05,25,12,09,19.20
2012,05,25,12,10,19.20
2012,05,25,12,11,19.20
2012,05,25,12,12,19.30
2012,05,25,12,13,19.30
2012,05,25,12,14,19.30
2012,05,25,12,15,19.20
2012,05,25,12,16,19.30
2012,05,25,12,17,19.40
2012,05,25,12,18,19.40
2012,05,25,12,19,19.40
2012,05,25,12,20,19.40
2012,05,25,12,21,19.60
2012,05,25,12,22,19.70
2012,05,25,12,23,19.70
2012,05,25,12,24,19.70
2012,05,25,12,25,19.80
2012,05,25,12,26,19.90
2012,05,25,12,27,20.00
2012,05,25,12,28,20.10
2012,05,25,12,29,20.20
2012,05,25,12,30,20.20
2012,05,25,12,31,20.20
2012,05,25,12,32,20.30
2012,05,25,12,33,20.40
2012,05,25,12,34,20.50
2012,05,25,12,35,20.60
2012,05,25,12,36,20.60
2012,05,25,12,37,20.50
2012,05,25,12,38,20.50
2012,05,25,12,39,20.40
2012,05,25,12,40,20.40
2012,05,25,12,41,20.40
2012,05,25,12,42,20.40
2012,05,25,12,43,20.40
2012,05,25,12,44,20.40
2012,05,25,12,45,20.40
2012,05,25,12,46,20.40
2012,05,25,12,47,20.40
2012,05,25,12,48,20.40
2012,05,25,12,49,20.50
2012,05,25,12,50,20.60
2012,05,25,12,51,20.70
2012,05,25,12,52,20.70
2012,05,25,12,53,20.80
2012,05,25,12,54,20.90
2012,05,25,12,55,21.00
2012,05,25,12,56,21.10
2012,05,25,12,57,21.20
2012,05,25,12,58,21.20
2012,05,25,12,59,21.10
2012,05,25,13,00,21.10
2012,05,25,13,01,21.00
2012,05,25,13,02,21.00
2012,05,25,13,03,20.90
2012,05,25,13,04,20.80
2012,05,25,13,05,20.70
2012,05,25,13,06,20.70
2012,05,25,13,07,20.70
2012,05,25,13,08,20.70
2012,05,25,13,09,20.80
2012,05,25,13,10,20.90
2012,05,25,13,11,21.00
2012,05,25,13,12,21.10
2012,05,25,13,13,21.10
2012,05,25,13,14,21.10
2012,05,25,13,15,21.10
2012,05,25,13,16,21.20
2012,05,25,13,17,21.20
2012,05,25,13,18,21.30
2012,05,25,13,19,21.30
2012,05,25,13,20,21.30
2012,05,25,13,21,21.40
2012,05,25,13,22,21.50
2012,05,25,13,23,21.60
2012,05,25,13,24,21.80
2012,05,25,13,25,21.90
2012,05,25,13,26,21.90
2012,05,25,13,27,22.00
2012,05,25,13,28,22.00
2012,05,25,13,29,21.90
2012,05,25,13,30,21.70
2012,05,25,13,31,21.60
2012,05,25,13,32,21.60
2012,05,25,13,33,21.60
2012,05,25,13,34,21.60
2012,05,25,13,35,21.60
2012,05,25,13,36,21.60
2012,05,25,13,37,21.60
2012,05,25,13,38,21.60
2012,05,25,13,39,21.60
2012,05,25,13,40,21.50
2012,05,25,13,41,21.40
2012,05,25,13,42,21.30
2012,05,25,13,43,21.30
2012,05,25,13,44,21.40
2012,05,25,13,45,21.60
2012,05,25,13,46,21.80
2012,05,25,13,47,21.80
2012,05,25,13,48,21.90
2012,05,25,13,49,21.90
2012,05,25,13,50,22.00
2012,05,25,13,51,22.10
2012,05,25,13,52,22.10
2012,05,25,13,53,21.90
2012,05,25,13,54,21.80
2012,05,25,13,55,21.70
2012,05,25,13,56,21.70
2012,05,25,13,57,21.70
2012,05,25,13,58,21.70
2012,05,25,13,59,21.80
2012,05,25,14,00,21.90
2012,05,25,14,01,21.90
2012,05,25,14,02,21.90
2012,05,25,14,03,21.90
2012,05,25,14,04,21.80
2012,05,25,14,05,21.80
2012,05,25,14,06,21.90
2012,05,25,14,07,21.90
2012,05,25,14,08,22.10
2012,05,25,14,09,22.20
2012,05,25,14,10,22.20
2012,05,25,14,11,22.20
2012,05,25,14,12,22.10
2012,05,25,14,13,22.10
2012,05,25,14,14,22.10
2012,05,25,14,15,22.10
2012,05,25,14,16,22.10
2012,05,25,14,17,22.00
2012,05,25,14,18,22.00
2012,05,25,14,19,21.90
2012,05,25,14,20,21.90
2012,05,25,14,21,21.90
2012,05,25,14,22,21.90
2012,05,25,14,23,22.00
2012,05,25,14,24,22.10
2012,05,25,14,25,22.10
2012,05,25,14,26,22.10
2012,05,25,14,27,22.00
2012,05,25,14,28,21.90
2012,05,25,14,29,21.90
2012,05,25,14,30,21.90
2012,05,25,14,31,22.00
2012,05,25,14,32,22.00
2012,05,25,14,33,22.00
2012,05,25,14,34,22.00
2012,05,25,14,35,22.10
2012,05,25,14,36,22.10
2012,05,25,14,37,22.10
2012,05,25,14,38,22.10
2012,05,25,14,39,22.10
2012,05,25,14,40,22.10
2012,05,25,14,41,22.10
2012,05,25,14,42,22.20
2012,05,25,14,43,22.30
2012,05,25,14,44,22.30
2012,05,25,14,45,22.20
2012,05,25,14,46,22.20
2012,05,25,14,47,22.20
2012,05,25,14,48,22.30
2012,05,25,14,49,22.40
2012,05,25,14,50,22.40
2012,05,25,14,51,22.30
2012,05,25,14,52,22.30
2012,05,25,14,53,22.30
2012,05,25,14,54,22.20
2012,05,25,14,55,22.20
2012,05,25,14,56,22.20
2012,05,25,14,57,22.20
2012,05,25,14,58,22.30
2012,05,25,14,59,22.30
2012,05,25,15,00,22.40
2012,05,25,15,01,22.50
2012,05,25,15,02,22.50
2012,05,25,15,03,22.50
2012,05,25,15,04,22.60
2012,05,25,15,05,22.70
2012,05,25,15,06,22.80
2012,05,25,15,07,22.80
2012,05,25,15,08,22.80
2012,05,25,15,09,22.80
2012,05,25,15,10,22.90
2012,05,25,15,11,22.90
2012,05,25,15,12,22.90
2012,05,25,15,13,22.90
2012,05,25,15,14,22.90
2012,05,25,15,15,22.90
2012,05,25,15,16,22.80
2012,05,25,15,17,22.80
2012,05,25,15,18,22.80
2012,05,25,15,19,22.80
2012,05,25,15,20,22.80
2012,05,25,15,21,22.80
2012,05,25,15,22,22.70
2012,05,25,15,23,22.70
2012,05,25,15,24,22.70
2012,05,25,15,25,22.60
2012,05,25,15,26,22.70
2012,05,25,15,27,22.80
2012,05,25,15,28,22.90
2012,05,25,15,29,22.90
2012,05,25,15,30,22.90
2012,05,25,15,31,22.90
2012,05,25,15,32,22.80
2012,05,25,15,33,22.80
2012,05,25,15,34,22.80
2012,05,25,15,35,22.80
2012,05,25,15,36,22.80
2012,05,25,15,37,22.70
2012,05,25,15,38,22.80
2012,05,25,15,39,22.80
2012,05,25,15,40,22.90
2012,05,25,15,41,23.00
2012,05,25,15,42,23.00
2012,05,25,15,43,23.00
2012,05,25,15,44,22.90
2012,05,25,15,45,23.00
2012,05,25,15,46,23.00
2012,05,25,15,47,23.10
2012,05,25,15,48,23.20
2012,05,25,15,49,23.30
2012,05,25,15,50,23.30
2012,05,25,15,51,23.30
2012,05,25,15,52,23.30
2012,05,25,15,53,23.30
2012,05,25,15,54,23.30
2012,05,25,15,55,23.30
2012,05,25,15,56,23.20
2012,05,25,15,57,23.10
2012,05,25,15,58,23.10
2012,05,25,15,59,23.10
2012,05,25,16,00,23.10
2012,05,25,16,01,23.00
2012,05,25,16,02,23.00
2012,05,25,16,03,23.00
2012,05,25,16,04,23.00
2012,05,25,16,05,23.10
2012,05,25,16,06,23.10
2012,05,25,16,07,23.20
2012,05,25,16,08,23.30
2012,05,25,16,09,23.30
2012,05,25,16,10,23.40
2012,05,25,16,11,23.40
2012,05,25,16,12,23.40
2012,05,25,16,13,23.40
2012,05,25,16,14,23.30
2012,05,25,16,15,23.30
2012,05,25,16,16,23.20
2012,05,25,16,17,23.30
2012,05,25,16,18,23.30
2012,05,25,16,19,23.30
2012,05,25,16,20,23.30
2012,05,25,16,21,23.20
2012,05,25,16,22,23.20
2012,05,25,16,23,23.30
2012,05,25,16,24,23.30
2012,05,25,16,25,23.30
2012,05,25,16,26,23.20
2012,05,25,16,27,23.20
2012,05,25,16,28,23.10
2012,05,25,16,29,23.10
2012,05,25,16,30,23.10
2012,05,25,16,31,23.00
2012,05,25,16,32,23.00
2012,05,25,16,33,23.00
2012,05,25,16,34,23.10
2012,05,25,16,35,23.20
2012,05,25,16,36,23.30
2012,05,25,16,37,23.40
2012,05,25,16,38,23.50
2012,05,25,16,39,23.50
2012,05,25,16,40,23.50
2012,05,25,16,41,23.60
2012,05,25,16,42,23.60
2012,05,25,16,43,23.60
2012,05,25,16,44,23.60
2012,05,25,16,45,23.60
2012,05,25,16,46,23.50
2012,05,25,16,47,23.40
2012,05,25,16,48,23.20
2012,05,25,16,49,23.10
2012,05,25,16,50,23.10
2012,05,25,16,51,23.20
2012,05,25,16,52,23.30
2012,05,25,16,53,23.40
2012,05,25,16,54,23.50
2012,05,25,16,55,23.40
2012,05,25,16,56,23.30
2012,05,25,16,57,23.20
2012,05,25,16,58,23.10
2012,05,25,16,59,23.10
2012,05,25,17,00,23.10
2012,05,25,17,01,23.20
2012,05,25,17,02,23.30
2012,05,25,17,03,23.30
2012,05,25,17,04,23.30
2012,05,25,17,05,23.30
2012,05,25,17,06,23.40
2012,05,25,17,07,23.40
2012,05,25,17,08,23.40
2012,05,25,17,09,23.40
2012,05,25,17,10,23.50
2012,05,25,17,11,23.50
2012,05,25,17,12,23.50
2012,05,25,17,13,23.50
2012,05,25,17,14,23.50
2012,05,25,17,15,23.50
2012,05,25,17,16,23.40
2012,05,25,17,17,23.50
2012,05,25,17,18,23.50
2012,05,25,17,19,23.50
2012,05,25,17,20,23.50
2012,05,25,17,21,23.60
2012,05,25,17,22,23.70
2012,05,25,17,23,23.80
2012,05,25,17,24,23.80
2012,05,25,17,25,23.80
2012,05,25,17,26,23.80
2012,05,25,17,27,23.80
2012,05,25,17,28,23.80
2012,05,25,17,29,23.80
2012,05,25,17,30,23.80
2012,05,25,17,31,23.80
2012,05,25,17,32,23.80
2012,05,25,17,33,23.80
2012,05,25,17,34,23.70
2012,05,25,17,35,23.60
2012,05,25,17,36,23.60
2012,05,25,17,37,23.60
2012,05,25,17,38,23.60